Tracking 23439 objects as of 16-Jun-2021
HD Live streaming from Space Station
objects crossing your sky now

IUS R/B(2)

Track IUS R/B(2) now!


NORAD ID: 25869
Int'l Code: 1999-040D
Perigee: 1,283.9 km
Apogee: 72,050.4 km
Inclination: 37.0 °
Period: 1,480.9 minutes
Semi major axis: 43038 km
RCS: 4.4547 m2 (large)
Launch date: July 23, 1999
Source: United States (US)
Launch site: AIR FORCE EASTERN TEST RANGE (AFETR)

Note: This is a ROCKET BODY
aabbcc
Your satellite tracking list
Your tracking list is empty




NASA's NSSDC Master Catalog

Two Line Element Set (TLE):
1 25869U 99040D   21166.97317544 -.00000315  00000-0  00000+0 0  9997
2 25869  37.0401   5.0117 8221379 129.2314 336.3310  0.97235085 77760
Source of the keplerian elements: AFSPC